Simultaneous Nadir Overpasses (SNOs) Predictions

Prediction of SNOs between GOES-16 and METOP-C Satellite Orbit:

Table of predicted SNOs for the next 14.0 days since TLE Epoch: 5/29/2020
Index Date Time (GOES-16) GOES-16 Lat,Lon METOP-C Lat,Lon Distance(km) Time Diff (sec)
1 05/30/2020 14:25:24 0.02, -75.20 -0.45, -73.20 229.28 80
2 06/01/2020 02:44:25 -0.02, -75.19 -0.62, -77.79 296.64 80
3 06/02/2020 02:21:06 -0.02, -75.19 0.54, -72.80 272.76 80
4 06/03/2020 14:39:57 0.02, -75.21 0.48, -77.36 244.29 80
5 06/04/2020 14:21:58 0.01, -75.22 -0.62, -72.36 325.30 80
6 06/06/2020 02:40:59 -0.01, -75.21 -0.37, -76.97 199.80 80
7 06/07/2020 02:17:40 -0.00, -75.22 0.73, -71.97 369.95 80
8 06/08/2020 14:36:31 0.00, -75.25 0.31, -76.53 146.45 80
9 06/09/2020 14:18:33 -0.00, -75.26 -0.86, -71.55 423.85 80
10 06/11/2020 02:37:33 0.00, -75.26 -0.18, -76.14 99.64 80
11 06/12/2020 02:14:13 0.00, -75.28 0.92, -71.14 471.14 80




NCC Satellite Simultaneous Nadir Overpasses (SNOs) Prediction Service
